Location: Stone Trail Observatory
(44.2408°N, 105.6081°W)
Time: 17:35:19
(UTC-06:00)

Iridium 6 - Visible Passes

Search period start: 23 April 2017 00:00
Search period end: 03 May 2017 00:00
Orbit: 776 x 779 km, 86.4° (Epoch: 22 April)

Date Brightness Start Highest point End Pass type
(mag) Time Alt. Az. Time Alt. Az. Time Alt. Az.
23 Apr 6.3 20:32:58 10° NNE 20:37:43 34° E 20:42:27 10° SE visible
23 Apr 7.3 22:13:51 10° NNW 22:18:20 30° W 22:22:49 10° SW visible
24 Apr 6.3 21:39:55 10° NNW 21:45:00 53° W 21:50:02 10° SSW visible
25 Apr 5.5 21:06:16 10° N 21:11:31 86° E 21:16:44 10° S visible
25 Apr 8.3 22:49:33 10° NW 22:51:25 12° WNW 22:53:17 10° W visible
26 Apr 5.8 20:32:51 10° N 20:37:55 48° E 20:42:57 10° SSE visible
26 Apr 7.8 22:14:23 10° NNW 22:18:16 21° W 22:22:07 10° SW visible
27 Apr 7.0 21:40:12 10° NNW 21:44:59 37° W 21:49:44 10° SSW visible
28 Apr 5.9 21:06:23 10° N 21:11:35 67° W 21:16:45 10° S visible
29 Apr 5.5 20:32:50 10° N 20:38:04 69° E 20:43:15 10° S visible
29 Apr 8.2 22:15:14 10° NW 22:18:08 15° WNW 22:21:03 10° WSW visible
30 Apr 7.6 21:40:38 10° NNW 21:44:56 27° W 21:49:14 10° SW visible
01 May 6.6 21:06:37 10° NNW 21:11:36 47° W 21:16:34 10° SSW visible
02 May 5.7 20:32:55 10° N 20:38:10 84° W 20:43:23 10° S visible
02 May 8.7 22:17:07 10° WNW 22:17:58 10° WNW 22:18:49 10° W visible
